• Join FlightAware (Why Join?)
  • Login
  • US Flag 
08:28PM EDT


 

Airport Tracker/Info


-or-


 

Live Flight TrackerFlight Track Log ✈ TRS1718 ✈ 28-Apr-2013 ✈ KDEN - MMSD / SJD

Flight Track Log - Related Links

Times and Time Zones

All times are in EDT time to prevent confusion due to time zone crossing. See the TRS1718 flight status page for this flight to view local times or setup timezone preferences in your user account.

Time Position Orientation Groundspeed Altitude Reporting Facility
EDT Latitude Longitude Course Direction KTS MPH feet Rate Location/Type
10:48AM 39.8000 -104.6667 197° South 179 206 6,600  Level Denver TRACON
10:49AM 39.7500 -104.6333 153° Southeast 236 272 8,300 2,640 Climbing Denver TRACON
10:50AM 39.7058 -104.6142 162° South 279 321 10,700 3,420 Climbing Denver Center
10:51AM 39.6150 -104.5758 162° South 353 406 14,100 3,600 Climbing Denver Center
10:52AM 39.5050 -104.5683 177° South 374 430 18,200 3,780 Climbing Denver Center
10:53AM 39.4000 -104.5900 189° South 386 444 22,000 3,180 Climbing Denver Center
10:54AM 38.9392 -105.0777 197° South  Level FlightAware Approximate
10:54AM 39.2983 -104.6317 198° South 393 452 24,800  Level Denver Center
10:55AM 39.1853 -104.6778 198° South 419 482 27,500 2,460 Climbing Denver Center
10:56AM 39.0703 -104.7256 198° South 427 491 29,900 2,220 Climbing Denver Center
10:57AM 38.9364 -104.8036 204° Southwest 448 516 32,200 2,040 Climbing Denver Center
10:58AM 38.8214 -104.8747 206° Southwest 450 518 34,200 1,320 Climbing Denver Center
10:59AM 38.7047 -104.9489 206° Southwest 460 529 35,000 360 Climbing Denver Center
11:00AM 38.5911 -105.0286 209° Southwest 461 531 35,000 420 Level Denver Center
11:01AM 38.4778 -105.1064 208° Southwest 458 527 35,900 1,440 Climbing Denver Center
11:02AM 38.3656 -105.1839 208° Southwest 455 524 38,000 1,980 Climbing Denver Center
11:03AM 38.2528 -105.2606 208° Southwest 445 512 40,000 960 Climbing Denver Center
11:04AM 38.1308 -105.3442 208° Southwest 447 514 40,000  Level Denver Center
11:05AM 38.0250 -105.4164 208° Southwest 451 519 40,000  Level Denver Center
11:06AM 37.9022 -105.5000 208° Southwest 449 517 40,000  Level Denver Center
11:07AM 37.7986 -105.5697 208° Southwest 444 511 40,000  Level Denver Center
11:08AM 37.6900 -105.6392 207° Southwest 451 519 40,000  Level Denver Center
11:09AM 37.5625 -105.7039 202° Southwest 444 511 40,000  Level Denver Center
11:10AM 37.4497 -105.7611 202° Southwest 447 514 40,000  Level Denver Center
11:11AM 37.3219 -105.8269 202° Southwest 446 513 40,000  Level Denver Center
11:12AM 37.2086 -105.8781 200° South 449 517 40,000  Level Denver Center
11:13AM 37.0761 -105.9353 199° South 450 518 40,000  Level Denver Center
11:14AM 36.9653 -105.9856 200° South 453 521 40,000  Level Denver Center
11:15AM 36.8308 -106.0450 199° South 457 526 40,000  Level Denver Center
11:16AM 36.7175 -106.0947 199° South 458 527 40,000  Level Denver Center
11:17AM 36.5958 -106.1489 200° South 468 539 40,000  Level Albuquerque Center
11:18AM 36.4842 -106.2000 200° South 456 525 40,000  Level Albuquerque Center
11:19AM 36.3714 -106.2492 199° South 450 518 40,000  Level Albuquerque Center
11:20AM 36.2389 -106.3069 199° South 450 518 40,000  Level Albuquerque Center
11:21AM 36.1275 -106.3556 199° South 445 512 40,000  Level Albuquerque Center
11:23AM 36.0111 -106.4056 199° South 442 509 40,000  Level Albuquerque Center
11:24AM 35.8869 -106.4589 199° South 439 505 40,000  Level Albuquerque Center
11:25AM 35.7575 -106.5144 199° South 439 505 40,000  Level Albuquerque Center
11:26AM 35.6400 -106.5644 199° South 441 507 40,000  Level Albuquerque Center
11:27AM 35.5233 -106.6136 199° South 444 511 40,000  Level Albuquerque Center
11:28AM 35.4061 -106.6642 199° South 444 511 40,000  Level Albuquerque Center
11:29AM 35.2919 -106.7125 199° South 439 505 40,000  Level Albuquerque Center
11:30AM 35.1606 -106.7681 199° South 442 509 40,000  Level Albuquerque Center
11:31AM 35.0425 -106.8200 200° South 464 534 40,000  Level Albuquerque Center
11:32AM 34.9069 -106.8558 192° South 447 514 40,000  Level Albuquerque Center
11:33AM 34.7969 -106.8831 191° South 450 518 40,000  Level Albuquerque Center
11:34AM 34.6725 -106.9175 193° South 455 524 40,000  Level Albuquerque Center
11:35AM 34.5267 -106.9575 193° South 449 517 40,000  Level Albuquerque Center
11:36AM 34.4044 -106.9903 192° South 452 520 40,000 -60 Level Albuquerque Center
11:37AM 34.2761 -107.0250 193° South 450 518 39,900 -60 Descending Albuquerque Center
11:38AM 34.1542 -107.0539 191° South 448 516 39,900  Level Albuquerque Center
11:39AM 34.0319 -107.0872 193° South 449 517 40,000  Climbing Albuquerque Center
11:40AM 33.9089 -107.1175 192° South 451 519 39,900  Descending Albuquerque Center
11:41AM 33.7853 -107.1519 193° South 454 522 40,000  Climbing Albuquerque Center
11:42AM 33.6611 -107.1836 192° South 456 525 40,000 -60 Level Albuquerque Center
11:43AM 33.5133 -107.2211 192° South 454 522 39,900 -60 Descending Albuquerque Center
11:44AM 33.3911 -107.2525 192° South 452 520 39,900  Level Albuquerque Center
11:45AM 33.2675 -107.2717 187° South 454 522 40,000  Climbing Albuquerque Center
11:46AM 33.1444 -107.2283 164° South 460 529 39,900 -60 Descending Albuquerque Center
11:47AM 33.0236 -107.1811 162° South 458 527 39,900  Level Albuquerque Center
11:48AM 32.9017 -107.1364 163° South 457 526 39,900  Level Albuquerque Center
11:49AM 32.7806 -107.0881 161° South 458 527 39,900  Level Albuquerque Center
11:50AM 32.6458 -107.0369 162° South 459 528 39,900  Level Albuquerque Center
11:51AM 32.5236 -106.9889 162° South 462 532 40,000  Climbing Albuquerque Center
11:52AM 32.3831 -106.9339 162° South 459 528 40,000  Level Albuquerque Center
11:53AM 32.2603 -106.8856 162° South 463 533 40,000 -60 Level Albuquerque Center
11:54AM 32.1347 -106.8400 163° South 467 537 39,900 -60 Descending Albuquerque Center
11:56AM 32.0117 -106.7944 163° South 464 534 39,900  Level Albuquerque Center
11:57AM 31.8878 -106.7489 163° South 465 535 40,000  Climbing Albuquerque Center
11:58AM 31.7653 -106.7217 169° South 451 519 39,900  Descending Albuquerque Center
11:59AM 31.6472 -106.7592 195° South 438 504 40,000  Climbing Albuquerque Center
12:00PM 31.5308 -106.7986 196° South 435 501 39,900 -120 Descending Albuquerque Center
12:02PM 31.3205 -106.8681 196° South  Level FlightAware Approximate
12:09PM 30.5314 -107.1262 196° South  Level FlightAware Approximate
12:10PM 30.4186 -107.1627 196° South  Level FlightAware Approximate
12:11PM 30.3058 -107.1991 196° South  Level FlightAware Approximate
12:12PM 30.1930 -107.2355 196° South  Level FlightAware Approximate
12:13PM 30.0802 -107.2717 196° South  Level FlightAware Approximate
12:14PM 29.9674 -107.3079 196° South  Level FlightAware Approximate
12:15PM 29.8546 -107.3440 196° South  Level FlightAware Approximate
12:16PM 29.7418 -107.3800 195° South  Level FlightAware Approximate
12:17PM 29.6289 -107.4160 195° South  Level FlightAware Approximate
12:18PM 29.5161 -107.4518 195° South  Level FlightAware Approximate
12:19PM 29.4032 -107.4876 195° South  Level FlightAware Approximate
12:20PM 29.2904 -107.5233 195° South  Level FlightAware Approximate
12:21PM 29.1775 -107.5589 195° South  Level FlightAware Approximate
12:22PM 29.0644 -107.5940 195° South  Level FlightAware Approximate
12:23PM 28.9512 -107.6281 195° South  Level FlightAware Approximate
12:24PM 28.8380 -107.6621 195° South  Level FlightAware Approximate
12:25PM 28.7248 -107.6961 195° South  Level FlightAware Approximate
12:26PM 28.6115 -107.7299 195° South  Level FlightAware Approximate
12:27PM 28.4995 -107.7686 197° South  Level FlightAware Approximate
12:28PM 28.3876 -107.8078 197° South  Level FlightAware Approximate
12:29PM 28.2757 -107.8469 197° South  Level FlightAware Approximate
12:30PM 28.1626 -107.8813 195° South  Level FlightAware Approximate
12:31PM 28.0494 -107.9153 195° South  Level FlightAware Approximate
12:32PM 27.9362 -107.9491 195° South  Level FlightAware Approximate
12:33PM 27.8234 -107.9844 195° South  Level FlightAware Approximate
12:34PM 27.7105 -108.0197 195° South  Level FlightAware Approximate
12:35PM 27.5974 -108.0538 195° South  Level FlightAware Approximate
12:36PM 27.4841 -108.0872 195° South  Level FlightAware Approximate
12:37PM 27.3708 -108.1206 195° South  Level FlightAware Approximate
12:38PM 27.2576 -108.1539 195° South  Level FlightAware Approximate
12:39PM 27.1443 -108.1871 195° South  Level FlightAware Approximate
12:40PM 27.0310 -108.2202 195° South  Level FlightAware Approximate
12:41PM 26.9177 -108.2533 195° South  Level FlightAware Approximate
12:42PM 26.8043 -108.2863 195° South  Level FlightAware Approximate
12:43PM 26.6923 -108.3225 214° Southwest  Level FlightAware Approximate
12:44PM 26.5951 -108.3955 214° Southwest  Level FlightAware Approximate
12:45PM 26.4979 -108.4684 214° Southwest  Level FlightAware Approximate
12:46PM 26.4007 -108.5412 214° Southwest  Level FlightAware Approximate
12:47PM 26.3035 -108.6142 214° Southwest  Level FlightAware Approximate
12:48PM 26.2063 -108.6870 214° Southwest  Level FlightAware Approximate
12:49PM 26.1073 -108.7564 211° Southwest  Level FlightAware Approximate
12:50PM 26.0069 -108.8235 211° Southwest  Level FlightAware Approximate
12:51PM 25.9065 -108.8905 211° Southwest  Level FlightAware Approximate
12:52PM 25.8061 -108.9574 211° Southwest  Level FlightAware Approximate
12:53PM 25.7056 -109.0242 211° Southwest  Level FlightAware Approximate
12:54PM 25.5970 -109.0663 196° South  Level FlightAware Approximate
12:55PM 25.4841 -109.1011 196° South  Level FlightAware Approximate
12:56PM 25.3707 -109.1329 193° South  Level FlightAware Approximate
12:57PM 25.2567 -109.1624 193° South  Level FlightAware Approximate
12:58PM 25.1427 -109.1918 193° South  Level FlightAware Approximate
12:59PM 25.0286 -109.2212 193° South  Level FlightAware Approximate
01:00PM 24.9146 -109.2507 197° South  Level FlightAware Approximate
01:01PM 24.8013 -109.2806 195° South  Level FlightAware Approximate
01:02PM 24.6880 -109.3130 195° South  Level FlightAware Approximate
01:03PM 24.5745 -109.3446 194° South  Level FlightAware Approximate
01:04PM 24.4607 -109.3749 194° South  Level FlightAware Approximate
01:05PM 24.3469 -109.4050 193° South  Level FlightAware Approximate
01:06PM 24.2329 -109.4342 193° South  Level FlightAware Approximate
01:07PM 24.1190 -109.4640 193° South  Level FlightAware Approximate
01:08PM 24.0051 -109.4937 193° South  Level FlightAware Approximate
01:09PM 23.8907 -109.5187 191° South  Level FlightAware Approximate
01:10PM 23.7759 -109.5442 191° South  Level FlightAware Approximate
01:11PM 23.6633 -109.5789 197° South  Level FlightAware Approximate
01:12PM 23.5514 -109.6162 197° South  Level FlightAware Approximate
01:13PM 23.4362 -109.6394 190° South  Level FlightAware Approximate
01:14PM 23.3234 -109.6667 180° South  Level FlightAware Approximate
01:15PM 23.2118 -109.7010 190° South  Level FlightAware Approximate
01:16PM 23.1518 -109.7210 190° South  Level Estimated
01:17PM 23.1518 -109.7210 190° South  Level Estimated
01:18PM 23.1518 -109.7210 190° South  Level Estimated
01:19PM 23.1518 -109.7210 190° South  Level Estimated
01:20PM 23.1518 -109.7210 190° South  Level Estimated
01:21PM 23.1518 -109.7210 190° South  Level Estimated
01:22PM 23.1518 -109.7210 190° South  Level Estimated
01:23PM 23.1518 -109.7210 190° South  Level Estimated
01:24PM 23.1518 -109.7210 190° South  Level Estimated
01:25PM 23.1518 -109.7210 190° South  Level Estimated
01:26PM 23.1518 -109.7210 190° South  Level Estimated
01:27PM 23.1518 -109.7210 190° South  Level Estimated
01:28PM 23.1518 -109.7210 190° South  Level Estimated
01:29PM 23.1518 -109.7210 190° South  Level Estimated